Weather Roundup
Issued by NWS

Home | Current Version | Previous Version | Text Only | Print | Product List | Glossary On
Versions: 1 2 3 4 5 6 7 8 9 10 11 12 13 14 15 16 17 18 19 20 21 22 23 24 25 26 27 28 29 30 31 32 33 34 35 36 37 38 39 40 41 42 43 44 45 46 47 48 49 50
078
NZUS93 KARX 240110
HRRWXR

CURRENT HOURLY OBSERVATIONS ACROSS
MUCH OF THE UPPER MISSISSIPPI VALLEY
NATIONAL WEATHER SERVICE LA CROSSE WI
800 PM CDT SAT JUL 23 2016


...SOUTHEAST MINNESOTA...


CITY           SKY/WX    TMP DP  RH WIND       PRES   REMARKS
ROCHESTER      CLOUDY    74  70  87 S8        29.83S
ROCHESTER/MAYO FAIR      74  72  91 SE7       29.82S
WINONA         PTCLDY    73  68  83 SE7       29.81F
AUSTIN         CLEAR     75  70  83 S6        29.81S
ALBERT LEA     CLEAR     77  73  88 SE5       29.80F
DODGE CENTER   CLEAR     75  70  83 CALM      29.82S
PRESTON        CLOUDY    73  67  82 S7        29.84S
OWATONNA       CLEAR     79  70  73 SE5       29.80F
FARIBAULT      CLEAR     79  72  78 SE5       29.79F
$$

...ELSEWHERE IN MINNESOTA...


CITY           SKY/WX    TMP DP  RH WIND       PRES   REMARKS
MINNEAPOLIS    PTCLDY    75  70  84 SE8       29.78F
INTNL FALLS    CLOUDY    74  65  73 SE10G18   29.76F
DULUTH         MOCLDY    67  62  84 SE12      29.85F
RED WING       CLEAR     77  70  78 E3        29.79F
REDWOOD FALLS  CLOUDY    84  76  76 SE10      29.74R HX  93
MANKATO        CLEAR     79  72  78 SE12      29.77F
WORTHINGTON    CLEAR     84  77  79 MISG      29.78S HX  94
FAIRMONT       CLEAR     82  75  78 S9        29.76S
$$

...SOUTHWEST WISCONSIN...


CITY           SKY/WX    TMP DP  RH WIND       PRES   REMARKS
LA CROSSE      CLOUDY    75  68  78 SE5       29.83R
PRAIRIE DU CHI CLOUDY    71  69  95 SE6       29.85F
BOSCOBEL       CLOUDY    73  70  90 CALM      29.87F
LONE ROCK      LGT RAIN  72  71  97 E5        29.90F
PLATTEVILLE    CLOUDY    71  71 100 E6        29.90F
FORT MC COY    CLOUDY    71  67  88 CALM      29.86S
CAMP DOUGLAS   CLOUDY    70  69  95 SE9       29.87F
MAUSTON-NEW LI CLOUDY    71  70  97 SE6       29.87S
VIROQUA        CLOUDY    70  70 100 SE12      29.88S
WIS DELLS      LGT RAIN  71  69  94 SE7       29.90F
$$

...ELSEWHERE IN WISCONSIN...


CITY           SKY/WX    TMP DP  RH WIND       PRES   REMARKS
MILWAUKEE      CLOUDY    75  71  87 SE6       29.91F
MADISON        TSTM      71  70  96 N5        29.93F FOG
GREEN BAY      LGT RAIN  76  74  93 SE9       29.88F
EAU CLAIRE     CLOUDY    72  70  93 E8        29.83F
BLACK RVR FLS  CLOUDY    72  71  97 CALM      29.84S
MEDFORD        LGT RAIN  68  68 100 SE5       29.88F
WAUSAU         CLOUDY    71  66  84 VRB6      29.88F
WIS RAPIDS     CLOUDY    71  66  84 S3        29.88F
MARSHFIELD     CLOUDY    71  66  84 SE8       29.87F
RICE LAKE      CLOUDY    70  68  91 CALM      29.85F
$$

...NORTHEAST IOWA...


CITY           SKY/WX    TMP DP  RH WIND       PRES   REMARKS
WATERLOO       CLOUDY    77  71  82 SE12      29.80F
DUBUQUE        CLOUDY    71  70  96 SE9       29.90F
DECORAH        CLOUDY    72  72 100 SE13G20   29.83F
MASON CITY     CLEAR     78  74  87 SE9       29.80F
CHARLES CITY   CLOUDY    75  73  94 SE9       29.81F
OELWEIN        PTCLDY    75  72  88 SE13      29.84F
$$

...ELSEWHERE IN IOWA...


CITY           SKY/WX    TMP DP  RH WIND       PRES   REMARKS
DES MOINES     PTCLDY    88  76  67 S7        29.80F HX  99
IOWA CITY      CLOUDY    82  76  81 E3        29.86S
FORT DODGE     CLOUDY    84  79  84 S6        29.80S HX  96
MARSHALLTOWN   CLEAR     84  82  94 E7        29.81F HX 100
CEDAR RAPIDS   PTCLDY    77  76  96 SE7       29.84F
$$

...NORTHERN ILLINOIS...


CITY           SKY/WX    TMP DP  RH WIND       PRES   REMARKS
CHICAGO-OHARE  LGT RAIN  72  69  90 E13       29.95F
CHICAGO-MIDWAY CLOUDY    75  70  84 NE15G22   29.97S
MOLINE         CLOUDY    86  79  79 E7        29.87F HX  99
ROCKFORD       TSTM      75  72  90 N14       29.97R
PEORIA         CLEAR     87  78  74 S7        29.89S HX 100
$$

NOTE: "FAIR" INDICATES FEW OR NO CLOUDS BELOW 12,000 FEET WITH NO
SIGNIFICANT WEATHER AND/OR OBSTRUCTIONS TO VISIBILITY. WIND
SPEEDS ARE IN MILES-PER-HOUR.




USA.gov is the U.S. government's official web portal to all federal, state and local government web resources and services.